{"data":{"norad_id":45088,"intl_designator":"2020-006AW","name":"STARLINK-1183","alt_names":[],"object_type":"PAYLOAD","status":"ACTIVE","operator":null,"country":"US","launch_date":"2020-01-29","launch_site_code":"AFETR","launch_vehicle":null,"mission":null,"orbit_class":"UNKNOWN","rcs_meters":null,"size_class":null,"mass_kg":null,"dimensions":null,"purposes":["comms"],"wikipedia_slug":null,"has_3d_model":false,"image_url":null,"decayed_at":null,"tle_current":{"epoch":"2026-05-24T23:40:22.215072Z","epoch_age_seconds":70158,"freshness":"FRESH","line1":"1 45088U 20006AW  26144.98636823  .00026680  00000+0  81801-3 0  9997","line2":"2 45088  53.1566 247.6023 0003081 332.1722  27.9115 15.33610628348778","mean_motion":15.33610628,"eccentricity":0.0003081,"inclination_deg":53.1566,"raan_deg":247.6023,"arg_perigee_deg":332.1722,"mean_anomaly_deg":27.9115,"bstar":0.00081801,"rev_number":34877,"period_min":93.896062906001,"perigee_km":462.94204038459,"apogee_km":467.15881247675,"semimajor_km":6843.1874264307,"source":"CELESTRAK","updated_at":"2026-05-25T13:38:16.380292Z"}}}